[[{"header":{"parameterUnit":"m.s-1","parameterCategory":1,"la1":30.2991,"la2":30.254,"lo1":-89.0895,"lo2":-89.0444,"dy":0.0017,"dx":0.0017,"nx":28,"ny":28,"refTime":"2025-12-06T09:00:00:Z","depth":0,"parameterNumber":2,"parameterNumberName":"U-component_of_WINDS"},"data":[0,0,0,0,0,0,0,0,0,0,0,0,0,0,0,0,0,0,0,0,0,0,0,0,0,0,0,0,0,0,0,0,0,0,0,0,0,0,0,0,0,0,0,0,0,0,0,0,0,0,0,0,0,0,0,0,0,0,-2.829,-2.8292,0,-2.8451,-2.8453,-2.8455,-2.8427,-2.8424,-2.8421,-2.8418,-2.8588,-2.8595,-2.8602,0,0,0,0,0,0,0,0,0,0,0,0,0,-2.7961,-2.7967,-2.829,-2.8292,-2.8294,-2.8451,-2.8453,-2.8455,-2.8427,-2.8424,-2.842,-2.8417,-2.8585,-2.8594,-2.8602,0,0,0,0,0,0,0,0,0,0,0,0,0,-2.8112,-2.797,-2.8289,-2.8299,-2.8301,-2.845,-2.8453,-2.8456,-2.8428,-2.8424,-2.842,-2.8416,-2.8583,-2.8593,-2.8604,-2.8755,0,0,-2.8636,-2.8641,0,0,0,0,0,0,0,0,-2.8103,-2.8124,-2.8295,-2.8298,-2.8301,-2.8414,-2.8399,-2.8556,-2.8429,-2.838,-2.8418,-2.8413,-2.8534,-2.8548,-2.8588,-2.8763,-2.877,-2.8637,-2.8644,-2.8648,-2.8651,0,0,0,0,0,0,0,-2.8093,-2.8117,-2.8354,-2.8298,-2.8302,-2.8296,-2.8313,-2.8429,-2.8479,-2.8384,-2.8382,-2.8402,-2.8535,-2.8578,-2.8592,-2.8773,-2.8637,-2.8647,-2.8653,-2.8657,-2.9081,-2.9085,0,0,0,0,0,0,-2.8079,-2.8108,-2.8349,-2.8359,-2.819,-2.8305,-2.8324,-2.8383,-2.8478,-2.8488,-2.8405,-2.84,-2.8561,-2.8579,-2.8598,-2.8781,-2.8648,-2.8658,-2.8665,-2.9076,-2.9082,-2.9087,0,0,0,0,0,0,-2.8072,-2.8101,-2.8342,-2.8233,-2.8263,-2.8316,-2.8382,-2.8388,-2.8431,-2.8493,-2.8503,-2.844,-2.8559,-2.8582,-2.8716,-2.8786,-2.8663,-2.8673,-2.907,-2.9078,-2.9084,-2.9149,0,0,0,0,0,0,-2.8063,-2.8098,-2.8155,-2.8234,-2.8269,-2.8457,-2.8386,-2.8394,-2.8449,-2.8444,-2.8528,-2.8538,-2.8557,-2.87,-2.8727,-2.8799,-2.8681,-2.9064,-2.9073,-2.9082,-2.9141,-2.9158,-2.9172,0,0,0,0,0,-2.8051,-2.8168,-2.8158,-2.8188,-2.8341,-2.8461,-2.8481,-2.8499,-2.8455,-2.8513,-2.8554,-2.8536,-2.8775,-2.8714,-2.8744,-2.882,-2.906,-2.9071,-2.9081,-2.9134,-2.9154,-2.9171,0,0,0,0,0,0,-2.8097,-2.8178,-2.8169,-2.8314,-2.8381,-2.8456,-2.853,-2.852,-2.8601,-2.8593,-2.8613,-2.8633,-2.8768,-2.8808,-2.8739,-2.8972,-2.8911,-2.8928,-2.8941,-2.8961,-2.8976,-2.8963,-2.869,0,0,0,0,0,-2.8124,-2.8213,-2.828,-2.8402,-2.8436,-2.8477,-2.853,-2.8538,-2.8608,-2.8636,-2.8686,-2.8756,-2.8847,-2.8906,-2.8993,-2.9147,-2.9165,-2.9214,-2.923,-2.9242,-2.9257,-2.9341,-2.9364,-2.9122,-2.9122,-2.9122,0,0,-2.8181,-2.8236,-2.8291,-2.8413,-2.8465,-2.8557,-2.8501,-2.8601,-2.867,-2.8652,-2.878,-2.882,-2.8899,-2.9043,-2.9109,-2.908,-2.9328,-2.9256,-2.9266,-2.9273,-2.9354,-2.9377,-2.9397,-2.913,-2.9128,-2.9127,0,0,-2.8331,-2.8382,-2.8489,-2.8543,-2.8622,-2.8649,-2.8675,-2.8752,-2.8777,-2.8906,-2.8894,-2.8978,-2.9134,-2.9191,-2.924,-2.9413,-2.94,-2.9441,-2.9522,-2.9604,-2.9623,-2.964,-2.9701,-2.9723,-2.9456,-2.9456,-2.9456,0,-2.8392,-2.8529,-2.8546,-2.8648,-2.8702,-2.8688,-2.8798,-2.8849,-2.8954,-2.8992,-2.8958,-2.9154,-2.9206,-2.9363,-2.9405,-2.9446,-2.9477,-2.9431,-2.9619,-2.9636,-2.9652,-2.971,-2.9734,-2.946,-2.946,-2.9459,-2.9459,0,-2.86,-2.8696,-2.8773,-2.8873,-2.8936,-2.9041,-2.9075,-2.9137,-2.914,-2.9171,-2.9303,-2.9366,-2.9465,-2.9504,-2.9509,-2.9662,-2.9642,-2.9613,-2.9552,-2.9679,-2.9734,-2.9757,-2.9467,-2.9465,-2.9464,-2.9463,0,0,-2.8783,-2.8891,-2.8919,-2.8964,-2.9051,-2.9126,-2.9232,-2.9327,-2.938,-2.9454,-2.9542,-2.9675,-2.9649,-2.9705,-2.9717,-2.9789,-2.9921,-2.9752,-2.9754,-2.978,-3.0094,-3.0114,-3.014,-2.9914,-2.9918,-2.9921,-3.0087,0,-2.8941,-2.9124,-2.9143,-2.9308,-2.9397,-2.9386,-2.9478,-2.9542,-2.9574,-2.9656,-2.9692,-2.9785,-2.9744,-2.9778,-2.9849,-2.989,-2.9985,-2.9879,-2.9997,-3.0001,-2.9976,-3.0169,-3.019,-3.0343,-3.0109,-3.0113,-3.0115,0,-2.9149,-2.9227,-2.94,-2.9475,-2.9513,-2.9595,-2.9685,-2.9762,-2.9836,-2.9854,-2.9917,-2.9919,-3.0029,-2.9964,-3.0116,-3.0043,-3.0093,-3.0121,-3.0128,-3.0138,-3.0065,-3.0184,-3.0393,-3.0415,-3.015,-3.0147,-3.0145,0,-2.9263,-2.9412,-2.9535,-2.9574,-2.9665,-2.9723,-2.9764,-2.9832,-2.9889,-2.9968,-3.0005,-3.0097,-3.0147,-3.0219,-3.0246,-3.0196,-3.0396,-3.0334,-3.0415,-3.0414,-3.0456,-3.0453,-3.0675,-3.049,-3.049,-3.049,-3.0489,0,-2.9437,-2.9543,-2.9587,-2.9663,-2.9782,-2.9803,-2.9921,-2.996,-3.0021,-3.0105,-3.0103,-3.0181,-3.0213,-3.0297,-3.032,-3.0442,-3.0465,-3.0483,-3.0487,-3.0483,-3.048,-3.0514,-3.0504,-3.0496,-3.0494,-3.0493,-3.0492,0,-2.9584,-2.9618,-2.9751,-2.9826,-2.9848,-2.9932,-2.9997,-3.0071,-3.0102,-3.0208,-3.0235,-3.0285,-3.0384,-3.0418,-3.0539,-3.0554,-3.0696,-3.0692,-3.067,-3.0671,-3.0749,-3.0741,-3.1,-3.1035,-3.0829,-3.0831,-3.0832,0,-2.9692,-2.9773,-2.9857,-2.9912,-2.9955,-3.0044,-3.0102,-3.0127,-3.0187,-3.0277,-3.034,-3.0438,-3.0518,-3.0677,-3.0725,-3.0818,-3.0815,-3.09,-3.0829,-3.0822,-3.0816,-3.081,-3.0818,-3.0913,-3.0915,-3.0916,-3.0918,0,-2.9879,-2.9892,-2.9974,-3.0063,-3.0132,-3.0203,-3.0273,-3.0318,-3.0354,-3.0422,-3.0523,-3.0585,-3.0708,-3.0805,-3.09,-3.0944,-3.0937,-3.094,-3.0963,-3.0958,-3.0942,-3.0951,-3.0705,-3.0934,-3.0932,-3.0931,-3.093,-3.0929,-3.0009,-3.0081,-3.0151,-3.0243,-3.0298,-3.0363,-3.0435,-3.0476,-3.056,-3.0661,-3.0671,-3.078,-3.0852,-3.0979,-3.1027,-3.1113,-3.1089,-3.1124,-3.1132,-3.114,-3.1145,-3.093,-3.1131,-3.113,-3.113,-3.1129,-3.1129,0,-3.0195,-3.024,-3.0325,-3.0421,-3.0494,-3.0481,-3.0557,-3.0619,-3.0714,-3.0782,-3.086,-3.0976,-3.1072,-3.1127,-3.1223,-3.1281,-3.128,-3.1305,-3.13,-3.131,-3.1161,-3.1131,-3.1304,-3.1304,-3.1304,-3.1304,-3.1304,-3.1304,-3.03,-3.0421,-3.0442,-3.059,-3.0635,-3.074,-3.0785,-3.0845,-3.0899,-3.1028,-3.1107,-3.1142,-3.1205,-3.1305,-3.1392,-3.1407,-3.1441,-3.1468,-3.148,-3.1339,-3.1321,-3.1304,-3.1275,-3.1476,-3.1476,-3.1622,-3.1623,-3.1624]},{"header":{"parameterUnit":"m.s-1","parameterCategory":1,"la1":30.2991,"la2":30.254,"lo1":-89.0895,"lo2":-89.0444,"dy":0.0017,"dx":0.0017,"nx":28,"ny":28,"refTime":"2025-12-06T09:00:00:Z","depth":0,"parameterNumber":3,"parameterNumberName":"V-component_of_WINDS"},"data":[0,0,0,0,0,0,0,0,0,0,0,0,0,0,0,0,0,0,0,0,0,0,0,0,0,0,0,0,0,0,0,0,0,0,0,0,0,0,0,0,0,0,0,0,0,0,0,0,0,0,0,0,0,0,0,0,0,0,-0.7965,-0.7963,0,-0.7741,-0.7739,-0.7736,-0.7705,-0.7707,-0.7709,-0.7711,-0.7474,-0.7466,-0.7457,0,0,0,0,0,0,0,0,0,0,0,0,0,-0.8354,-0.8347,-0.7965,-0.7962,-0.796,-0.7742,-0.7739,-0.7736,-0.7704,-0.7707,-0.771,-0.7712,-0.7476,-0.7467,-0.7457,0,0,0,0,0,0,0,0,0,0,0,0,0,-0.8163,-0.8345,-0.7966,-0.7918,-0.7912,-0.7743,-0.7739,-0.7735,-0.7704,-0.7707,-0.771,-0.7713,-0.748,-0.7468,-0.7455,-0.7316,0,0,-0.7417,-0.7412,0,0,0,0,0,0,0,0,-0.8174,-0.8149,-0.7928,-0.7921,-0.7913,-0.7754,-0.7789,-0.7594,-0.7703,-0.7782,-0.7711,-0.7715,-0.7564,-0.7545,-0.7496,-0.7305,-0.7295,-0.7416,-0.7409,-0.7404,-0.74,0,0,0,0,0,0,0,-0.8187,-0.8158,-0.7876,-0.7925,-0.7916,-0.7904,-0.788,-0.7752,-0.7658,-0.7776,-0.7773,-0.7747,-0.7561,-0.7508,-0.749,-0.7291,-0.7417,-0.7406,-0.7398,-0.7393,-0.6966,-0.6963,0,0,0,0,0,0,-0.8211,-0.8169,-0.7884,-0.787,-0.8054,-0.7895,-0.7868,-0.7802,-0.7659,-0.7641,-0.7745,-0.7747,-0.7527,-0.7504,-0.7481,-0.7303,-0.7404,-0.7392,-0.7385,-0.697,-0.6966,-0.6961,0,0,0,0,0,0,-0.8219,-0.8185,-0.7893,-0.8019,-0.7981,-0.7885,-0.7811,-0.7796,-0.7743,-0.7636,-0.7618,-0.7709,-0.7529,-0.7499,-0.7356,-0.7294,-0.7386,-0.7375,-0.6975,-0.6969,-0.6964,-0.6949,0,0,0,0,0,0,-0.823,-0.8189,-0.8138,-0.8018,-0.7974,-0.7774,-0.7807,-0.7789,-0.7723,-0.7723,-0.7598,-0.758,-0.7529,-0.7375,-0.7344,-0.7279,-0.7365,-0.698,-0.6972,-0.6965,-0.6954,-0.6943,-0.6933,0,0,0,0,0,-0.8244,-0.8142,-0.8135,-0.8101,-0.7909,-0.7771,-0.7745,-0.7692,-0.7718,-0.7663,-0.7594,-0.7584,-0.7308,-0.7361,-0.7325,-0.7256,-0.6983,-0.6974,-0.6966,-0.6959,-0.6945,-0.6934,0,0,0,0,0,0,-0.8255,-0.8126,-0.8116,-0.7973,-0.7883,-0.7766,-0.7696,-0.768,-0.7579,-0.7583,-0.7518,-0.749,-0.7349,-0.7289,-0.735,-0.711,-0.7147,-0.7131,-0.7154,-0.714,-0.713,-0.7145,-0.7355,0,0,0,0,0,-0.8241,-0.8143,-0.8034,-0.7918,-0.7874,-0.7793,-0.7731,-0.7697,-0.76,-0.7561,-0.7482,-0.7385,-0.7276,-0.7206,-0.71,-0.6947,-0.6915,-0.6881,-0.6871,-0.6863,-0.6848,-0.6755,-0.6737,-0.6933,-0.6933,-0.6933,0,0,-0.821,-0.8127,-0.8069,-0.7918,-0.7844,-0.774,-0.7761,-0.7651,-0.7571,-0.7544,-0.7403,-0.7341,-0.7229,-0.7079,-0.7009,-0.7024,-0.6787,-0.6852,-0.6846,-0.6835,-0.6744,-0.6726,-0.6709,-0.6927,-0.6928,-0.6929,0,0,-0.8099,-0.803,-0.7922,-0.7848,-0.7737,-0.7683,-0.7657,-0.7541,-0.7499,-0.7358,-0.7333,-0.7236,-0.7052,-0.6971,-0.6906,-0.6761,-0.6745,-0.6728,-0.6672,-0.6583,-0.6567,-0.6553,-0.6495,-0.6475,-0.6715,-0.6715,-0.6715,0,-0.8074,-0.7919,-0.7868,-0.7758,-0.7689,-0.7662,-0.7549,-0.7479,-0.7338,-0.7288,-0.731,-0.7073,-0.6997,-0.6823,-0.6788,-0.6738,-0.6702,-0.674,-0.6574,-0.656,-0.6545,-0.6489,-0.6468,-0.6713,-0.6713,-0.6713,-0.6713,0,-0.789,-0.7782,-0.7708,-0.7573,-0.7497,-0.7386,-0.7314,-0.7242,-0.7215,-0.7157,-0.701,-0.6917,-0.6788,-0.6746,-0.6719,-0.6567,-0.6579,-0.6589,-0.6623,-0.6526,-0.6471,-0.645,-0.671,-0.6711,-0.6711,-0.6712,0,0,-0.7778,-0.7616,-0.7588,-0.7524,-0.7399,-0.7312,-0.7198,-0.7075,-0.7011,-0.6915,-0.6812,-0.6655,-0.6661,-0.6587,-0.655,-0.6472,-0.6354,-0.6489,-0.6485,-0.6462,-0.6174,-0.6164,-0.614,-0.6346,-0.6341,-0.6338,-0.6181,0,-0.7647,-0.7445,-0.7395,-0.722,-0.7116,-0.7088,-0.6987,-0.6896,-0.6839,-0.6739,-0.6675,-0.6562,-0.6582,-0.6536,-0.6459,-0.6386,-0.6295,-0.6397,-0.6243,-0.6239,-0.6267,-0.6112,-0.6102,-0.5959,-0.616,-0.6157,-0.6154,0,-0.7468,-0.7368,-0.7184,-0.7066,-0.7021,-0.6932,-0.6811,-0.6719,-0.6613,-0.6577,-0.6493,-0.6462,-0.6336,-0.6382,-0.6204,-0.6274,-0.6208,-0.6163,-0.6156,-0.6134,-0.6186,-0.6081,-0.5912,-0.5888,-0.6121,-0.6124,-0.6126,0,-0.7397,-0.7216,-0.708,-0.7028,-0.689,-0.6826,-0.6765,-0.6663,-0.6591,-0.6485,-0.6435,-0.6317,-0.625,-0.6156,-0.6091,-0.6132,-0.5916,-0.5958,-0.5876,-0.5877,-0.5828,-0.5831,-0.564,-0.5796,-0.5797,-0.5797,-0.5798,0,-0.7253,-0.7139,-0.7046,-0.6962,-0.6832,-0.6773,-0.6645,-0.6583,-0.6491,-0.6391,-0.636,-0.6266,-0.619,-0.6083,-0.6032,-0.5888,-0.586,-0.5822,-0.5809,-0.5821,-0.5825,-0.5773,-0.5779,-0.5791,-0.5793,-0.5794,-0.5795,0,-0.7149,-0.7083,-0.6932,-0.6814,-0.6781,-0.669,-0.6586,-0.65,-0.6443,-0.6315,-0.6282,-0.6189,-0.6062,-0.599,-0.5831,-0.5796,-0.5633,-0.5628,-0.5669,-0.5662,-0.5581,-0.5587,-0.5345,-0.5307,-0.5496,-0.5494,-0.5493,0,-0.7059,-0.6971,-0.6843,-0.6774,-0.6712,-0.6603,-0.6528,-0.6467,-0.6389,-0.626,-0.6189,-0.6061,-0.5954,-0.5751,-0.5667,-0.5543,-0.553,-0.5454,-0.5511,-0.5524,-0.552,-0.5523,-0.5511,-0.5442,-0.544,-0.5439,-0.5438,0,-0.6904,-0.6874,-0.677,-0.6652,-0.6564,-0.6468,-0.6372,-0.6317,-0.6238,-0.6152,-0.6022,-0.594,-0.5776,-0.5646,-0.5515,-0.5447,-0.5425,-0.5421,-0.5394,-0.5403,-0.5427,-0.5406,-0.5635,-0.5426,-0.5427,-0.5428,-0.5428,-0.5429,-0.6799,-0.6716,-0.6612,-0.6495,-0.6417,-0.6327,-0.6239,-0.617,-0.6062,-0.5925,-0.5895,-0.5756,-0.5647,-0.5469,-0.5398,-0.5285,-0.5298,-0.5261,-0.5251,-0.5241,-0.5234,-0.5451,-0.5262,-0.5262,-0.5262,-0.5263,-0.5263,0,-0.6635,-0.6567,-0.646,-0.6327,-0.6232,-0.6226,-0.6119,-0.6039,-0.5918,-0.5821,-0.5716,-0.5564,-0.5437,-0.5343,-0.5212,-0.5139,-0.5125,-0.5106,-0.5107,-0.509,-0.5234,-0.5267,-0.5118,-0.5119,-0.5119,-0.5119,-0.5119,-0.5119,-0.6539,-0.6397,-0.6355,-0.6172,-0.6104,-0.5969,-0.5907,-0.5822,-0.5743,-0.5575,-0.547,-0.5411,-0.5312,-0.5173,-0.5054,-0.5029,-0.4979,-0.4959,-0.4932,-0.5066,-0.5081,-0.5096,-0.5126,-0.4951,-0.4951,-0.4797,-0.4796,-0.4795]}]]